Ephrata, WA
on Tuesday, February 19, 2013

Tuesday
Previous Day Next Day
Daily Summary
 ActualAverageRecord
Temperature
Mean Temperature °F 35°F  
Max Temperature 44°F 44°F 61°F (1991)
Min Temperature 27°F 26°F 7°F (1986)
Degree Days
Heating Degree Days 29 30  
Month to date heating degree days 555 607  
Since 1 July heating degree days 3991 4315  
Cooling Degree Days 0 0  
Month to date cooling degree days 0 0  
Year to date cooling degree days 0 0  
Moisture
Dew Point 27°F   
Average Humidity 75    
Maximum Humidity 92    
Minimum Humidity 57    
Precipitation
Precipitation T in 0.03 in 0.48 in (1981)
Month to date precipitation T 0.49  
Year to date precipitation 0.19 1.40  
Wind
Wind Speed 8 mph   
Max Wind Speed 16 mph   
Max Gust Speed 20 mph   
Visibility 10 miles   
Events     

Key: T is trace of precipitation, MM is missing value
Source: NWS Daily Summary
Time(PST)TemperatureDew PointHumidity Pressure Visibility Wind DirectionWind SpeedGust SpeedPrecipitationEvents Conditions
12:53 AM 28.9°F 26.1°F 89% 29.79 in 10.0 miles North 3.5 mph - N/A   Clear
1:53 AM 30.0°F 27.0°F 88% 29.78 in 10.0 miles NW 5.8 mph - N/A   Mostly Cloudy
2:53 AM 28.0°F 25.0°F 88% 29.78 in 10.0 miles North 4.6 mph - N/A   Clear
3:53 AM 28.9°F 26.1°F 89% 29.78 in 10.0 miles NW 4.6 mph - N/A   Mostly Cloudy
4:53 AM 30.9°F 27.0°F 85% 29.77 in 10.0 miles NNW 8.1 mph - N/A   Mostly Cloudy
5:53 AM 32.0°F 27.0°F 82% 29.77 in 10.0 miles North 8.1 mph - N/A   Scattered Clouds
6:53 AM 30.0°F 26.1°F 85% 29.78 in 10.0 miles North 5.8 mph - N/A   Overcast
7:40 AM 30.2°F 26.6°F 86% 29.75 in 10.0 miles NNW 6.9 mph - N/A   Overcast
7:53 AM 30.9°F 27.0°F 85% 29.78 in 10.0 miles NNW 6.9 mph - N/A   Mostly Cloudy
8:04 AM 33.8°F 28.4°F 81% 29.75 in 10.0 miles NNW 6.9 mph - N/A   Partly Cloudy
10:29 AM 41.0°F 30.2°F 65% 29.75 in 10.0 miles Variable 6.9 mph - N/A   Mostly Cloudy
10:53 AM 41.0°F 28.9°F 62% 29.78 in 10.0 miles North 5.8 mph - N/A   Mostly Cloudy
11:53 AM 42.1°F 30.0°F 62% 29.79 in 10.0 miles NNW 9.2 mph - N/A   Mostly Cloudy
12:32 PM 42.8°F 30.2°F 61% 29.76 in 10.0 miles NNW 10.4 mph 16.1 mph N/A   Overcast
12:53 PM 42.1°F 28.9°F 60% 29.79 in 10.0 miles NNW 9.2 mph - N/A   Overcast
1:53 PM 43.0°F 28.0°F 56% 29.79 in 10.0 miles NNW 9.2 mph - N/A   Mostly Cloudy
2:53 PM 41.0°F 28.9°F 62% 29.81 in 10.0 miles NNW 10.4 mph - N/A   Mostly Cloudy
4:53 PM 37.9°F 30.0°F 73% 29.81 in 10.0 miles NNW 9.2 mph - N/A   Partly Cloudy
5:53 PM 37.0°F 28.9°F 73% 29.83 in 10.0 miles NNW 6.9 mph - N/A   Overcast
6:53 PM 37.9°F 28.0°F 68% 29.86 in 10.0 miles North 11.5 mph - N/A   Overcast
7:53 PM 39.0°F 27.0°F 62% 29.87 in 10.0 miles North 8.1 mph - 0.00 in   Overcast
8:53 PM 37.9°F 27.0°F 65% 29.88 in 10.0 miles NNE 4.6 mph - N/A   Overcast
9:53 PM 37.9°F 25.0°F 60% 29.90 in 10.0 miles NNW 11.5 mph - N/A   Overcast
10:53 PM 36.0°F 24.1°F 62% 29.92 in 10.0 miles NNW 13.8 mph - N/A   Partly Cloudy
11:53 PM 34.0°F 23.0°F 64% 29.94 in 10.0 miles NW 11.5 mph - N/A   Clear
Moon Phase
Feb. 19 Feb. 25 Mar. 04 Mar. 11 Mar. 19
Sunrise:06:55 AM (PST) Moon Rise:11:51 AM (PST)2/19
Sunset:05:28 PM (PST) Moon Set:02:44 AM (PST)2/19

Copyright © 2014 The Weather Underground, Inc.